WB0YAF-8 Weather Reports


time (UTC)temp
C
wind
direction
speed
KPH
gust
KPH
rain 1hr
cm
rain 24hr
cm
rain mn
cm
humidity
%
barometer
mb
20260906215042 30 90 1.6 9.7 0.00 0.00 0.00 30 1018.4
20260906214542 30 113 0.0 0.0 0.00 0.00 0.00 30 1018.4
20260906214042 30 90 3.2 14.5 0.00 0.00 0.00 30 1018.4
20260906213543 30 90 9.7 14.5 0.00 0.00 0.00 30 1018.4
20260906213043 30 45 0.0 0.0 0.00 0.00 0.00 30 1018.4
20260906212543 30 45 0.0 8.0 0.00 0.00 0.00 30 1018.4
20260906212043 30 113 0.0 9.7 0.00 0.00 0.00 30 1018.4
20260906211542 30 90 1.6 9.7 0.00 0.00 0.00 30 1018.4
20260906211043 30 135 4.8 8.0 0.00 0.00 0.00 30 1018.4
20260906210543 29 135 3.2 14.5 0.00 0.00 0.00 30 1018.4
20260906210042 30 158 8.0 9.7 0.00 0.00 0.00 30 1019.4
20260906205543 30 113 8.0 12.9 0.00 0.00 0.00 30 1019.4
20260906205043 29 90 1.6 9.7 0.00 0.00 0.00 30 1019.4
20260906204543 29 90 0.0 4.8 0.00 0.00 0.00 30 1019.4
20260906204042 30 135 9.7 12.9 0.00 0.00 0.00 30 1019.4
20260906203542 30 180 0.0 4.8 0.00 0.00 0.00 30 1019.4
20260906203042 30 45 0.0 4.8 0.00 0.00 0.00 30 1019.4
20260906202543 30 180 0.0 0.0 0.00 0.00 0.00 30 1019.4
20260906202042 30 293 1.6 0.0 0.00 0.00 0.00 30 1019.4
20260906201542 30 90 0.0 9.7 0.00 0.00 0.00 30 1019.4
20260906201043 30 338 0.0 4.8 0.00 0.00 0.00 30 1019.4
20260906200543 29 113 8.0 8.0 0.00 0.00 0.00 30 1019.4
20260906200043 29 113 0.0 14.5 0.00 0.00 0.00 30 1019.4
20260906195542 29 90 3.2 0.0 0.00 0.00 0.00 30 1019.4
20260906195042 29 113 8.0 14.5 0.00 0.00 0.00 30 1019.4
20260906194544 29 135 0.0 14.5 0.00 0.00 0.00 30 1019.4
20260906194042 29 90 3.2 11.3 0.00 0.00 0.00 30 1019.4
20260906193542 29 113 4.8 4.8 0.00 0.00 0.00 30 1019.4
20260906193042 28 113 1.6 12.9 0.00 0.00 0.00 30 1019.4
20260906192543 28 68 0.0 0.0 0.00 0.00 0.00 30 1019.4
20260906192043 28 113 8.0 12.9 0.00 0.00 0.00 30 1019.4
20260906191543 29 113 0.0 9.7 0.00 0.00 0.00 30 1019.4
20260906191044 28 113 8.0 14.5 0.00 0.00 0.00 30 1019.4
20260906190544 28 158 0.0 4.8 0.00 0.00 0.00 30 1019.4
20260906190043 28 158 1.6 4.8 0.00 0.00 0.00 30 1020.4
20260906185542 28 135 8.0 12.9 0.00 0.00 0.00 30 1020.4
20260906185042 28 68 1.6 9.7 0.00 0.00 0.00 30 1020.4
20260906184542 28 113 4.8 11.3 0.00 0.00 0.00 30 1020.4
20260906184042 28 0 0.0 0.0 0.00 0.00 0.00 30 1020.4
20260906183542 28 113 1.6 4.8 0.00 0.00 0.00 30 1020.4
20260906183042 28 135 0.0 8.0 0.00 0.00 0.00 30 1020.4
20260906182544 27 113 0.0 0.0 0.00 0.00 0.00 30 1020.4
20260906182043 28 90 4.8 9.7 0.00 0.00 0.00 30 1020.4
20260906181543 28 113 1.6 4.8 0.00 0.00 0.00 30 1020.4
20260906181044 28 23 0.0 4.8 0.00 0.00 0.00 30 1020.4
20260906180543 28 315 0.0 0.0 0.00 0.00 0.00 30 1020.4
20260906180043 28 180 0.0 4.8 0.00 0.00 0.00 30 1020.4
20260906175542 28 113 0.0 0.0 0.00 0.00 0.00 30 1020.4
20260906175042 28 135 0.0 0.0 0.00 0.00 0.00 30 1020.4
20260906174542 27 68 0.0 0.0 0.00 0.00 0.00 30 1020.4
20260906174043 27 135 1.6 9.7 0.00 0.00 0.00 30 1020.4
20260906173542 27 113 0.0 0.0 0.00 0.00 0.00 30 1020.4
20260906173042 27 90 0.0 0.0 0.00 0.00 0.00 30 1021.4
20260906172543 27 113 0.0 4.8 0.00 0.00 0.00 30 1021.4
20260906172043 26 293 3.2 0.0 0.00 0.00 0.00 30 1021.4
20260906171543 26 135 0.0 4.8 0.00 0.00 0.00 30 1021.4
20260906171042 27 135 3.2 4.8 0.00 0.00 0.00 30 1021.4
20260906170542 27 135 3.2 9.7 0.00 0.00 0.00 30 1021.4
20260906170042 27 135 3.2 0.0 0.00 0.00 0.00 30 1021.4
20260906165542 27 68 0.0 0.0 0.00 0.00 0.00 30 1021.4
20260906165042 27 135 0.0 4.8 0.00 0.00 0.00 30 1021.4
20260906164542 27 135 3.2 9.7 0.00 0.00 0.00 30 1021.4
20260906164043 27 90 0.0 0.0 0.00 0.00 0.00 30 1021.4
20260906163542 27 113 0.0 0.0 0.00 0.00 0.00 30 1021.4
20260906163042 27 113 0.0 8.0 0.00 0.00 0.00 30 1021.4
20260906162542 28 113 0.0 4.8 0.00 0.00 0.00 30 1021.4
20260906162042 28 113 0.0 0.0 0.00 0.00 0.00 30 1021.4
20260906161543 28 135 4.8 9.7 0.00 0.00 0.00 30 1021.4
20260906161042 28 113 0.0 0.0 0.00 0.00 0.00 30 1021.4
20260906160543 28 90 0.0 0.0 0.00 0.00 0.00 30 1021.4
20260906160042 28 113 0.0 0.0 0.00 0.00 0.00 30 1021.4
20260906155542 28 135 0.0 0.0 0.00 0.00 0.00 30 1021.4
20260906155042 28 135 0.0 0.0 0.00 0.00 0.00 30 1021.4
20260906154543 29 270 0.0 0.0 0.00 0.00 0.00 30 1021.4
20260906154042 29 338 0.0 0.0 0.00 0.00 0.00 30 1021.4
20260906153543 28 0 0.0 0.0 0.00 0.00 0.00 30 1021.4
20260906153043 28 0 0.0 0.0 0.00 0.00 0.00 30 1021.4
20260906152543 28 0 0.0 0.0 0.00 0.00 0.00 30 1021.4
20260906152042 27 0 0.0 0.0 0.00 0.00 0.00 30 1021.4
20260906151542 27 0 0.0 0.0 0.00 0.00 0.00 30 1020.4
20260906151042 27 0 0.0 0.0 0.00 0.00 0.00 30 1020.4
20260906150542 27 0 0.0 0.0 0.00 0.00 0.00 30 1020.4
20260906150043 27 0 0.0 0.0 0.00 0.00 0.00 30 1020.4
20260906145542 28 0 0.0 0.0 0.00 0.00 0.00 30 1020.4
20260906145043 28 0 0.0 0.0 0.00 0.00 0.00 30 1020.4
20260906144542 27 0 0.0 0.0 0.00 0.00 0.00 30 1020.4
20260906144043 27 0 0.0 0.0 0.00 0.00 0.00 30 1020.4
20260906143542 26 0 0.0 0.0 0.00 0.00 0.00 30 1020.4
20260906143042 26 0 0.0 0.0 0.00 0.00 0.00 30 1020.4
20260906142542 27 0 0.0 0.0 0.00 0.00 0.00 30 1020.4
20260906142043 27 0 0.0 0.0 0.00 0.00 0.00 30 1020.4
20260906141543 26 0 0.0 0.0 0.00 0.00 0.00 30 1020.4
20260906141043 26 0 0.0 0.0 0.00 0.00 0.00 30 1020.4
20260906140543 26 0 0.0 0.0 0.00 0.00 0.00 30 1020.4
20260906140043 25 0 0.0 0.0 0.00 0.00 0.00 31 1020.4
20260906135542 25 0 0.0 0.0 0.00 0.00 0.00 31 1020.4
20260906135042 23 0 0.0 0.0 0.00 0.00 0.00 31 1020.4
20260906134542 23 0 0.0 0.0 0.00 0.00 0.00 31 1020.4
20260906134043 22 0 0.0 0.0 0.00 0.00 0.00 31 1020.4
20260906133543 22 0 0.0 0.0 0.00 0.00 0.00 32 1020.4
20260906133042 21 0 0.0 0.0 0.00 0.00 0.00 32 1020.4
20260906132542 21 0 0.0 0.0 0.00 0.00 0.00 32 1020.4
20260906132042 20 0 0.0 0.0 0.00 0.00 0.00 33 1020.4
20260906131542 20 0 0.0 4.8 0.00 0.00 0.00 33 1020.4
20260906131043 19 0 0.0 4.8 0.00 0.00 0.00 33 1020.4
20260906130543 18 0 0.0 0.0 0.00 0.00 0.00 34 1020.4
20260906130043 18 23 0.0 0.0 0.00 0.00 0.00 34 1020.4
20260906125542 18 23 0.0 0.0 0.00 0.00 0.00 34 1020.4
20260906125042 18 23 0.0 0.0 0.00 0.00 0.00 34 1020.4
20260906124542 18 23 0.0 0.0 0.00 0.00 0.00 33 1020.4
20260906124043 19 23 0.0 0.0 0.00 0.00 0.00 33 1020.4
20260906123543 19 0 0.0 0.0 0.00 0.00 0.00 33 1020.4
20260906123042 19 0 0.0 4.8 0.00 0.00 0.00 33 1020.4
20260906122543 19 0 0.0 4.8 0.00 0.00 0.00 33 1020.4
20260906122043 18 0 0.0 4.8 0.00 0.00 0.00 33 1020.4
20260906121543 18 0 0.0 0.0 0.00 0.00 0.00 33 1020.4
20260906121043 18 0 0.0 0.0 0.00 0.00 0.00 34 1020.4
20260906120543 18 0 0.0 0.0 0.00 0.00 0.00 34 1020.4
20260906120043 18 0 0.0 0.0 0.00 0.00 0.00 34 1020.4
20260906115542 18 0 0.0 0.0 0.00 0.00 0.00 34 1020.4
20260906115042 18 0 0.0 0.0 0.00 0.00 0.00 34 1020.4
20260906114543 18 0 0.0 0.0 0.00 0.00 0.00 34 1020.4
20260906114042 18 0 0.0 0.0 0.00 0.00 0.00 34 1020.4
20260906113542 18 0 0.0 0.0 0.00 0.00 0.00 34 1020.4
20260906113042 18 0 0.0 0.0 0.00 0.00 0.00 34 1020.4
20260906112543 18 0 0.0 0.0 0.00 0.00 0.00 34 1020.4
20260906112043 18 0 0.0 0.0 0.00 0.00 0.00 34 1020.4
20260906111543 18 0 0.0 0.0 0.00 0.00 0.00 34 1019.4
20260906111043 18 0 0.0 0.0 0.00 0.00 0.00 34 1019.4
20260906110543 18 0 0.0 0.0 0.00 0.00 0.00 34 1019.4
20260906110043 18 0 0.0 0.0 0.00 0.00 0.00 34 1019.4
20260906105542 18 0 0.0 0.0 0.00 0.00 0.00 34 1019.4
20260906105042 18 0 0.0 0.0 0.00 0.00 0.00 34 1019.4
20260906104542 18 0 0.0 0.0 0.00 0.00 0.00 34 1020.4
20260906104043 18 0 0.0 0.0 0.00 0.00 0.00 36 1020.4
20260906103543 18 0 0.0 0.0 0.00 0.00 0.00 36 1020.4
20260906103043 18 0 0.0 0.0 0.00 0.00 0.00 36 1020.4
20260906102543 18 23 0.0 0.0 0.00 0.00 0.00 36 1020.4
20260906102043 18 113 0.0 0.0 0.00 0.00 0.00 35 1020.4
20260906101543 18 113 0.0 0.0 0.00 0.00 0.00 35 1020.4
20260906101042 18 113 0.0 0.0 0.00 0.00 0.00 35 1020.4
20260906100542 18 113 0.0 0.0 0.00 0.00 0.00 34 1020.4
20260906100042 18 113 0.0 0.0 0.00 0.00 0.00 34 1020.4
20260906095543 19 113 0.0 0.0 0.00 0.00 0.00 34 1020.4
20260906095043 19 113 0.0 0.0 0.00 0.00 0.00 34 1020.4
20260906094543 19 113 0.0 0.0 0.00 0.00 0.00 34 1020.4
20260906094043 20 113 0.0 0.0 0.00 0.00 0.00 34 1020.4
20260906093542 20 0 0.0 0.0 0.00 0.00 0.00 34 1020.4
20260906093043 20 0 0.0 0.0 0.00 0.00 0.00 34 1020.4
20260906092542 20 0 0.0 0.0 0.00 0.00 0.00 34 1020.4
20260906092042 20 0 0.0 0.0 0.00 0.00 0.00 34 1020.4
20260906091542 20 0 0.0 0.0 0.00 0.00 0.00 34 1020.4
20260906091043 20 0 0.0 0.0 0.00 0.00 0.00 34 1020.4
20260906090543 20 0 0.0 0.0 0.00 0.00 0.00 34 1020.4
20260906090042 20 0 0.0 0.0 0.00 0.00 0.00 34 1020.4
20260906085542 20 0 0.0 0.0 0.00 0.00 0.00 33 1020.4
20260906085042 20 0 0.0 4.8 0.00 0.00 0.00 33 1020.4
20260906084542 20 0 0.0 0.0 0.00 0.00 0.00 33 1020.4
20260906084043 20 0 0.0 0.0 0.00 0.00 0.00 33 1020.4
20260906083543 20 0 0.0 0.0 0.00 0.00 0.00 33 1020.4
20260906083043 20 0 0.0 4.8 0.00 0.00 0.00 34 1020.4
20260906082542 20 0 0.0 0.0 0.00 0.00 0.00 34 1020.4
20260906082042 19 0 0.0 0.0 0.00 0.00 0.00 35 1020.4
20260906081542 19 0 0.0 0.0 0.00 0.00 0.00 36 1020.4
20260906081043 19 0 0.0 0.0 0.00 0.00 0.00 37 1020.4
20260906080543 18 0 0.0 0.0 0.00 0.00 0.00 38 1020.4
20260906080043 18 0 0.0 0.0 0.00 0.00 0.00 38 1020.4
20260906075542 18 0 0.0 0.0 0.00 0.00 0.00 38 1020.4
20260906075042 18 0 0.0 0.0 0.00 0.00 0.00 38 1020.4
20260906074542 18 0 0.0 0.0 0.00 0.00 0.00 38 1020.4
20260906074042 18 0 0.0 0.0 0.00 0.00 0.00 38 1020.4
20260906073542 18 0 0.0 0.0 0.00 0.00 0.00 38 1020.4
20260906073042 18 0 0.0 0.0 0.00 0.00 0.00 39 1020.4
20260906072541 18 0 0.0 0.0 0.00 0.00 0.00 39 1020.4
20260906072041 18 0 0.0 0.0 0.00 0.00 0.00 39 1020.4
20260906071541 18 0 0.0 0.0 0.00 0.00 0.00 39 1020.4
20260906071042 18 0 0.0 0.0 0.00 0.00 0.00 38 1020.4
20260906070542 19 0 0.0 0.0 0.00 0.00 0.00 38 1020.4
20260906070042 19 0 0.0 0.0 0.00 0.00 0.00 38 1020.4
20260906065543 19 0 0.0 0.0 0.00 0.00 0.00 38 1020.4
20260906065043 19 0 0.0 4.8 0.00 0.00 0.00 37 1020.4
20260906064543 19 0 0.0 0.0 0.00 0.00 0.00 37 1020.4
20260906064042 20 0 0.0 0.0 0.00 0.00 0.00 36 1020.4
20260906063541 20 135 0.0 0.0 0.00 0.00 0.00 36 1020.4
20260906063041 20 135 0.0 4.8 0.00 0.00 0.00 35 1020.4
20260906062542 20 113 0.0 0.0 0.00 0.00 0.00 35 1020.4
20260906062042 20 113 0.0 0.0 0.00 0.00 0.00 35 1020.4
20260906061542 20 113 0.0 0.0 0.00 0.00 0.00 35 1020.4
20260906061043 20 45 0.0 4.8 0.00 0.00 0.00 35 1020.4
20260906060543 20 90 0.0 0.0 0.00 0.00 0.00 35 1020.4
20260906060043 20 90 0.0 0.0 0.00 0.00 0.00 35 1020.4
20260906055542 20 113 0.0 8.0 0.00 0.00 0.00 35 1020.4
20260906055042 20 113 1.6 4.8 0.00 0.00 0.00 35 1020.4
20260906054542 21 113 0.0 0.0 0.00 0.00 0.00 35 1020.4
20260906054042 21 113 0.0 0.0 0.00 0.00 0.00 34 1020.4
20260906053541 21 113 0.0 4.8 0.00 0.00 0.00 34 1020.4
20260906053041 21 135 0.0 8.0 0.00 0.00 0.00 34 1020.4
20260906052542 21 135 0.0 0.0 0.00 0.00 0.00 34 1020.4
20260906052042 21 135 0.0 0.0 0.00 0.00 0.00 34 1020.4
20260906051542 21 135 0.0 0.0 0.00 0.00 0.00 34 1020.4
20260906051043 21 135 0.0 0.0 0.00 0.00 0.00 34 1020.4
20260906050543 21 135 0.0 0.0 0.00 0.00 0.00 34 1020.4
20260906050043 21 135 0.0 0.0 0.00 0.00 0.00 34 1020.4
20260906045542 21 135 0.0 0.0 0.00 0.00 0.00 34 1020.4
20260906045042 21 135 0.0 0.0 0.00 0.00 0.00 34 1020.4
20260906044542 21 135 0.0 0.0 0.00 0.00 0.00 34 1020.4
20260906044043 21 135 0.0 0.0 0.00 0.00 0.00 34 1020.4
20260906043543 21 135 0.0 0.0 0.00 0.00 0.00 34 1020.4
20260906043042 21 135 0.0 0.0 0.00 0.00 0.00 34 1020.4
20260906042542 21 135 0.0 0.0 0.00 0.00 0.00 34 1020.4
20260906042042 21 135 0.0 0.0 0.00 0.00 0.00 34 1020.4
20260906041542 21 135 0.0 0.0 0.00 0.00 0.00 34 1020.4
20260906041043 22 135 0.0 0.0 0.00 0.00 0.00 33 1020.4
20260906040543 22 135 0.0 4.8 0.00 0.00 0.00 33 1020.4
20260906040043 22 135 0.0 0.0 0.00 0.00 0.00 33 1020.4
20260906035542 22 135 0.0 0.0 0.00 0.00 0.00 33 1020.4
20260906035043 22 135 0.0 0.0 0.00 0.00 0.00 33 1020.4
20260906034543 22 135 0.0 0.0 0.00 0.00 0.00 33 1020.4
20260906034042 22 135 0.0 0.0 0.00 0.00 0.00 33 1020.4
20260906033542 22 135 0.0 0.0 0.00 0.00 0.00 33 1020.4
20260906033044 22 135 0.0 0.0 0.00 0.00 0.00 33 1020.4
20260906032542 22 113 1.6 8.0 0.00 0.00 0.00 33 1020.4
20260906032042 22 135 0.0 8.0 0.00 0.00 0.00 34 1020.4
20260906031542 22 113 0.0 8.0 0.00 0.00 0.00 34 1020.4
20260906031043 22 113 0.0 9.7 0.00 0.00 0.00 33 1020.4
20260906030543 22 113 0.0 8.0 0.00 0.00 0.00 33 1020.4
20260906030043 22 135 0.0 0.0 0.00 0.00 0.00 33 1020.4
20260906025542 22 113 0.0 4.8 0.00 0.00 0.00 33 1020.4
20260906025042 22 113 0.0 0.0 0.00 0.00 0.00 33 1020.4
20260906024542 22 113 1.6 11.3 0.00 0.00 0.00 33 1019.4
20260906024042 23 135 0.0 4.8 0.00 0.00 0.00 33 1019.4
20260906023542 23 113 1.6 9.7 0.00 0.00 0.00 33 1019.4
20260906023042 23 113 1.6 9.7 0.00 0.00 0.00 33 1019.4
20260906022543 23 113 0.0 8.0 0.00 0.00 0.00 32 1019.4
20260906022043 23 158 4.8 11.3 0.00 0.00 0.00 32 1019.4
20260906021543 23 113 8.0 11.3 0.00 0.00 0.00 32 1019.4
20260906021042 24 90 4.8 11.3 0.00 0.00 0.00 31 1019.4
20260906020542 24 135 8.0 11.3 0.00 0.00 0.00 31 1019.4
20260906020042 24 113 0.0 8.0 0.00 0.00 0.00 31 1019.4
20260906015543 25 0 0.0 0.0 0.00 0.00 0.00 31 1019.4
20260906015043 25 0 0.0 0.0 0.00 0.00 0.00 31 1019.4
20260906014543 25 0 0.0 0.0 0.00 0.00 0.00 31 1019.4
20260906014041 25 0 0.0 0.0 0.00 0.00 0.00 31 1019.4
20260906013543 25 0 0.0 0.0 0.00 0.00 0.00 31 1019.4
20260906013043 25 0 0.0 0.0 0.00 0.00 0.00 31 1019.4
20260906012542 26 0 0.0 0.0 0.00 0.00 0.00 30 1019.4
20260906012042 26 0 0.0 0.0 0.00 0.00 0.00 30 1019.4
20260906011542 26 0 0.0 0.0 0.00 0.00 0.00 30 1019.4
20260906011042 26 0 0.0 0.0 0.00 0.00 0.00 30 1019.4
20260906010542 26 0 0.0 4.8 0.00 0.00 0.00 30 1019.4
20260906010042 26 0 0.0 4.8 0.00 0.00 0.00 30 1019.4
20260906005543 26 0 0.0 4.8 0.00 0.00 0.00 30 1019.4
20260906005043 27 23 0.0 0.0 0.00 0.00 0.00 30 1019.4
20260906004543 27 0 0.0 0.0 0.00 0.00 0.00 30 1019.4
20260906004042 27 0 0.0 8.0 0.00 0.00 0.00 30 1019.4
20260906003542 28 338 0.0 4.8 0.00 0.00 0.00 30 1019.4
20260906003041 28 0 0.0 0.0 0.00 0.00 0.00 30 1019.4
20260906002542 28 0 0.0 0.0 0.00 0.00 0.00 30 1019.4
20260906002042 28 0 0.0 0.0 0.00 0.00 0.00 30 1019.4
20260906001542 28 23 0.0 0.0 0.00 0.00 0.00 30 1019.4
20260906001043 28 0 0.0 0.0 0.00 0.00 0.00 30 1019.4
20260906000543 28 23 0.0 0.0 0.00 0.00 0.00 30 1019.4
20260906000043 28 90 0.0 0.0 0.00 0.00 0.00 30 1019.4
20260905235542 28 90 0.0 0.0 0.00 0.00 0.00 30 1019.4
20260905235042 28 90 0.0 0.0 0.00 0.00 0.00 30 1019.4
20260905234542 28 135 0.0 0.0 0.00 0.00 0.00 30 1019.4
20260905234042 28 135 0.0 0.0 0.00 0.00 0.00 30 1019.4
20260905233542 28 113 0.0 0.0 0.00 0.00 0.00 30 1019.4
20260905233042 28 90 0.0 0.0 0.00 0.00 0.00 30 1019.4
20260905232543 28 23 0.0 0.0 0.00 0.00 0.00 30 1019.4
20260905232042 28 90 0.0 0.0 0.00 0.00 0.00 30 1019.4
20260905231542 28 0 0.0 0.0 0.00 0.00 0.00 30 1019.4
20260905231043 28 0 0.0 0.0 0.00 0.00 0.00 30 1019.4
20260905230542 29 0 0.0 0.0 0.00 0.00 0.00 30 1019.4
20260905230042 29 0 0.0 0.0 0.00 0.00 0.00 30 1019.4
20260905225543 28 0 0.0 0.0 0.00 0.00 0.00 30 1019.4
20260905225043 29 23 0.0 0.0 0.00 0.00 0.00 30 1019.4
20260905224543 28 180 0.0 0.0 0.00 0.00 0.00 30 1019.4
20260905224042 28 0 0.0 0.0 0.00 0.00 0.00 30 1019.4
20260905223542 28 0 0.0 4.8 0.00 0.00 0.00 30 1019.4
20260905223042 28 23 0.0 0.0 0.00 0.00 0.00 30 1019.4
20260905222542 28 68 0.0 0.0 0.00 0.00 0.00 30 1019.4
20260905222042 28 0 0.0 4.8 0.00 0.00 0.00 30 1019.4
20260905221542 28 0 0.0 4.8 0.00 0.00 0.00 30 1019.4
20260905221043 28 0 0.0 9.7 0.00 0.00 0.00 30 1019.4
20260905220542 28 0 0.0 4.8 0.00 0.00 0.00 30 1019.4
20260905220042 28 113 0.0 0.0 0.00 0.00 0.00 30 1019.4
20260905215543 28 0 0.0 0.0 0.00 0.00 0.00 30 1019.4